Regional Weather Roundup
Issued by NWS Wakefield, VA

Home | Current Version | Previous Version | Text Only | Print | Product List | Glossary On
Versions: 1 2 3 4 5 6 7 8 9 10 11 12 13 14 15 16 17 18 19 20 21 22 23 24 25 26 27
000
ASUS41 KAKQ 242115
RWRAKQ

REGIONAL WEATHER ROUNDUP
NATIONAL WEATHER SERVICE WAKEFIELD VA
500 PM EDT MON APR 24 2017

Note: "fair" indicates few or no clouds below 12,000 feet with no
significant weather and/or obstructions to visibility. * = Denotes
station may not report precipitation (e.g., rain,snow,etc.),
thunder or fog.

VAZ042-051-052>054-056-242200-
NORTHERN VIRGINIA

CITY           SKY/WX    TMP DP  RH WIND       PRES   REMARKS
WASH NATIONAL  LGT RAIN  55  51  86 NE13      30.01F
DULLES         LGT RAIN  51  47  86 N10       30.02F FOG
FORT BELVOIR   LGT RAIN  53  50  90 N5        30.00S
QUANTICO       LGT RAIN  54  52  93 N12       30.00F
FREDERICKSBRG* LGT RAIN  53  53 100 N8        29.98S
STAFFORD*      CLOUDY    51  51 100 N9        30.02F FOG
WARRENTON      LGT RAIN  52  48  87 NE9       30.00S
CULPEPER*      LGT RAIN  51  51  97 NE8       30.02S
MANASSAS*      LGT RAIN  51  49  92 N7        30.02S
LEESBURG*      RAIN      52  52 100 N6        30.04S
WINCHESTER     LGT RAIN  50  46  87 CALM      30.04S
FRONT ROYAL*   CLOUDY    50  50 100 NE6       30.03R
LURAY*         LGT RAIN  50  50 100 N13       30.00S
$$

VAZ048-049-060>072-079>083-242200-
CENTRAL AND SOUTH CENTRAL VIRGINIA

CITY           SKY/WX    TMP DP  RH WIND       PRES   REMARKS
RICHMOND       LGT RAIN  57  56  96 NE18      29.90F FOG
CHESTERFIELD*  CLOUDY    57  39  51 NE10      29.91S
PETERSBURG*    DRIZZLE   57  56  95 NE15G22   29.88S
HANOVER        LGT RAIN  55  53  93 NE10G21   29.94S FOG
TAPPAHANNOCK*  LGT RAIN  56  56 100 NE12      29.95S
QUINTON*       CLOUDY    56  56 100 NE8       29.90S
CHARLOTTSVILLE LGT RAIN  53  50  89 NE16G23   29.97S FOG
GORDONSVILLE*  CLOUDY    51  50  97 NE13G18   29.97S
ORANGE*        CLOUDY    50  48  93 NE12      29.98S
LOUISA*        LGT RAIN  55  54  94 NE12G17   29.95S
BUMPASS*       CLOUDY    52  52 100 N5        29.96S
FARMVILLE*     RAIN      54  54 100 N13G21    29.90S
CREWE*         CLOUDY    55  55 100 N5        29.88F
FORT PICKETT*  CLOUDY   N/A N/A N/A N13       29.87S
CHASE CITY*    CLOUDY    54  53  95 N8G17     29.84F
CLARKSVILLE*   CLOUDY    54  54 100 N5        29.83S
SOUTH HILL*    CLOUDY    56  56 100 N8        29.88F
LAWRENCEVILLE* CLOUDY    58  57  97 N6        29.84S
EMPORIA*       LGT RAIN  59  59 100 N9G17     29.84F
$$

VAZ088>098-242200-
SOUTHEAST VIRGINIA

CITY           SKY/WX    TMP DP  RH WIND       PRES   REMARKS
NORFOLK        FOG       59  58  96 NE17G25   29.85F VSB 3/4
VIRGINIA BEACH CLOUDY    60  58  92 NE13      29.84F FOG
NORFOLK NAVAL  CLOUDY    59  58  96 E16       29.87F FOG
WEST POINT*    CLOUDY    56  55  95 NE14G22   29.91F
SALUDA*        CLOUDY    56  55  98 NE10G17   29.93F
NEWPORT NEWS   LGT RAIN  58  57  97 NE13G22   29.88S FOG
LANGLEY AFB    LGT RAIN  59  59 100 E21G28    29.86F
FORT EUSTIS    CLOUDY    59  57  94 NE16      29.85S
WILLIAMSBURG*  CLOUDY    61  61 100 NE6       29.89S
HR EXEC AP*    CLOUDY    63  57  82 E10G16    29.84R
FRANKLIN*      CLOUDY    61  60  96 NE16G22   29.84S
US460-WAKEFLD  LGT RAIN  60  59  96 NE10G18   29.86S
$$

VAZ020-022-025-037-045-242200-
WEST CENTRAL AND SOUTHWEST VIRGINIA

CITY           SKY/WX    TMP DP  RH WIND       PRES   REMARKS
STAUNTON*      DRIZZLE   51  50  97 N6        29.98F
WAYNESBORO*    CLOUDY    50  50 100 N8        29.97S
HOT SPRINGS VA HVY RAIN  41  37  87 E15G21    29.92S VSB<1/4
LYNCHBURG      LGT RAIN  52  51  97 NE18G24   29.90S FOG
DANVILLE       RAIN      52  52 100 NE14      29.83F FOG
SOUTH BOSTON*  CLOUDY    53  52  95 NE9       29.84F
MARTINSVILLE   RAIN      51  50  95 N6        29.88F
ROANOKE        LGT RAIN  53  51  93 NE10      29.91S
BLACKSBURG     DRIZZLE   51  49  94 NE8       29.90F
DUBLIN*        CLOUDY    52  49  87 NE13      29.88S FOG
MARION*        LGT RAIN  52  50  95 CALM      29.88R
HILLSVILLE*    CLOUDY    49  49 100 NE14G20   29.83S
RICHLANDS*     CLOUDY    53  49  87 CALM      29.84S
WISE*          CLOUDY    55  55 100 NE8       29.84S FOG
ABINGDON*      CLOUDY    58  52  80 E8        29.83R
$$

MDZ021>025-VAZ099-100-242200-
SOUTHERN MARYLAND AND THE DELMARVA PENINSULA

CITY           SKY/WX    TMP DP  RH WIND       PRES   REMARKS
PATUXENT RIVER CLOUDY    55  52  89 NE13      29.98S
BAY BRIDGE APT CLOUDY    57  46  67 E9        30.02F
LEONARDTOWN    CLOUDY    54  50  87 NE5       29.99S
DOVER          CLOUDY    56  55  95 NE8       30.04F
GEORGETOWN     CLOUDY    54  51  90 MISG      30.02F
EASTON         CLOUDY    55  46  71 E15G25    30.05S
CAMBRIDGE      CLOUDY    54  50  87 NE12G20   29.99F
SALISBURY      LGT RAIN  54  53  97 NE15G22   29.99S FOG
OCEAN CITY     CLOUDY    54  51  90 NE14G24   29.98F
WALLOPS ISLAND CLOUDY    54  54 100 NE26      29.95F
ACCOMACK*      CLOUDY    56  55  95 NE22G31   29.92S
$$

NCZ012>017-030>032-242200-
NORTH CENTRAL AND EASTERN NORTH CAROLINA

CITY           SKY/WX    TMP DP  RH WIND       PRES   REMARKS
ROANOKE RAPIDS LGT RAIN  61  61 100 NE9       29.80F
RALEIGH        RAIN      56  55  97 NE13      29.77F FOG
ELIZABETH CITY CLOUDY    72  68  87 E8        29.81S
AHOSKIE*       LGT RAIN  63  63  99 NE10      29.80S
EDENTON*       CLOUDY    69  66  88 E5        29.80F
CURRITUCK*     CLOUDY    67  67  99 E9        29.84R
KILL DEVIL HLS CLOUDY    67  62  84 SE7       29.80S
MANTEO         CLOUDY    71  64  79 SE13G18   29.81S
CAPE HATTERAS  CLOUDY    72  59  63 SE28G39   29.77F HAZE
TARBORO*       NOT AVBL
GOLDSBORO      LGT RAIN  65  65 100 NE10      29.69F FOG
WASHINGTON     LGT RAIN  66  65  96 E5        29.75F
GREENVILLE     LGT RAIN  66  66 100 E12       29.78S
NEW BERN       LGT RAIN  68  67  96 E8        29.72F
WILMINGTON     HVY RAIN  68  68 100 SE7       29.65R VSB 3/4
$$

VAZ048-242200-
ELSEWHERE

CITY           SKY/WX    TMP DP  RH WIND       PRES   REMARKS
HARRISBURG PA  CLOUDY    59  48  67 E12       30.06F
BALTIMORE      LGT RAIN  55  49  80 E15       30.03S
ANNAPOLIS      CLOUDY    59  48  67 E9        30.02F
ANDREWS AFB    DRIZZLE   54  50  84 NE14      29.99S
PHILADELPHIA   CLOUDY    58  43  57 E14       30.09F
HENDERSON NC   RAIN      53  52  96 NE10G16   29.80F
GREENSBORO     RAIN      51  51 100 NE14      29.80F VSB 1
ROCKY MOUNT    HVY RAIN  63  63 100 NE9       29.75F FOG
$$

VAZ100-242200-
MARINE

STATION/POSITION TIME  TEMP    WIND        PRES    WAVE   SWELL
                       AIR SEA DIR/SP/G            HT/PER HT/PER
                 (UTC) (F)     (DEG/KT/KT) (MB)    (FT/S) (FT/S)
CAPE MAY NJ      2048   53 55   60/ 13/ 19 1016.5F
LEWES DE         2048   53      60/ 19/ 24 1017.0F
15NM E FENWICK I 1950   52 51   40/ 21/ 23 1016.0    6/ 5   2/ 9
OCEAN-CITY-INLET 2048   53 56   80/ 15/ 24 1015.4F
WACHAPREAGUE VA  2048   54 58   40/ 25/ 30 1012.4F
THOMAS POINT MD  2100   57 57   70/ 18/ 22   N/A
GOOSES REEF MD   2100   56 54   60/ 17/ 21 1016.1    3/ 3
COVE POINT MD    2048   55      40/ 11/ 14 1016.0F
SOLOMONS ISLAND  2048   55 60   40/ 10/ 14   N/A
BISHOPS HEAD MD  2048   55 59   50/ 21/ 27 1014.5F
PINEY POINT MD   2048           70/  9/ 14   N/A
POTOMAC MD       2100   56 61   50/ 19/ 25 1013.5    2/ 3
LEWISETTA VA     2048   56 61   70/ 18/ 23 1013.9F
RAPPAHANNOCK LGT 2048           50/ 22/ 25 1013.0S
STINGRAY PT      2050   57      80/ 23/ 27 1012.4S
YORK RVR RNG VA  2048   58      70/ 26/ 30 1010.9F
YORKTOWN VA      2048   59 63   50/ 15/ 19 1011.6F
JAMESTOWN VA     2100   58 67   30/  8/ 14   N/A     0
DOMINION TERM VA 2048   60      40/  6/ 11 1010.9F
KIPTOPEKE VA     2048      60   70/ 14/ 20   N/A
CHES BAY BRIDGE  2048   58 61   60/ 27/ 32 1010.2F
CAPE HENRY VA    2048   58      40/ 24/ 28   N/A
WILLOUBY STN VA  2048   59      60/ 21/ 24 1011.6F
S CRANEY ISL VA  2048   60      70/ 19/ 23 1010.0F
CAPE HENRY BUOY  2042      56                N/A     5/ 6   2/11
1ST LANDING BUOY 2100   59 60              1010.9    4/ 4
CAPE CHARLES BUO 2021      57                N/A     5/ 6   2/11
64NM E OF VA BCH 2050   61 54  110/ 12/ 12 1011.3F   6/ 6   5/ 6
DUCK PIER NC     2048   64 62   90/ 15/ 17 1009.1F
44100 DUCK FRF   2035      55                N/A     6/ 6   2/12
44056 DUCK FRF   2030      58                N/A     5/ 6   2/12
OREGON INLET NC  2042   66 60   90/  8/ 13 1009.0F
HATTERAS NC      2048   72 67  130/ 17/ 24 1007.6F
DIAMOND SHLS NC  2050   75 79  130/ 29/ 37 1007.0F  10/ 7
CAPE LOOKOUT NC  2000   70     110/ 26/ 29 1005.6F
$$




USA.gov is the U.S. government's official web portal to all federal, state and local government web resources and services.